Regional Weather Roundup
Issued by NWS

Home | Current Version | Previous Version | Text Only | Print | Product List | Glossary Off
Versions: 1 2 3 4 5 6 7 8 9 10 11 12 13 14 15 16 17 18 19 20 21 22 23 24 25 26 27 28 29 30 31 32 33 34 35 36 37 38 39 40 41 42 43 44 45 46 47 48 49

000
ASUS43 KDMX 100407
RWRIA

WEATHER ROUNDUP FOR IOWA
NATIONAL WEATHER SERVICE DES MOINES IA
1100 PM CDT WED JUL 09 2014

NOTE: "FAIR" INDICATES FEW OR NO CLOUDS BELOW 12,000 FEET WITH NO
SIGNIFICANT WEATHER AND/OR OBSTRUCTIONS TO VISIBILITY.

* - THESE STATIONS ARE NOT NWS STATIONS...THUS NOT UNDER NWS
QUALITY CONTROL.  THEY ALSO DO NOT REPORT WEATHER SUCH
AS PRECIPITATION OR FOG.

IAZ001>003-012>014-020>022-031>034-043>046-100500-
   NORTHWEST IOWA

CITY           SKY/WX    TMP DP  RH WIND       PRES   REMARKS
CARROLL *      MOCLDY    63  63 100 S3        30.03R
CHEROKEE *     PTCLDY    66  64  94 CALM      30.01S
DENISON *      CLEAR     68  63  83 SW5       30.02R
LE MARS *      CLEAR     66  61  82 CALM      30.01S
ORANGE CITY *  CLEAR     70  61  73 CALM      30.02R
SHELDON *      CLEAR     64  61  88 E5        30.01R
STORM LAKE *   MOCLDY    68  64  88 S7        30.03S
$$

IAZ055>058-069>071-079>083-090>094-100500-
   SOUTHWEST IOWA

CITY           SKY/WX    TMP DP  RH WIND       PRES   REMARKS
ATLANTIC *     MOCLDY    68  63  83 CALM      30.03S
AUDUBON *      CLEAR     66  63  88 CALM      30.05R
CLARINDA *     CLEAR     68  64  88 CALM      30.06S
COUNCIL BLFS * CLEAR     70  64  83 S6        30.02S
CRESTON *      PTCLDY    64  61  88 S6        30.06S
HARLAN  *      CLEAR     66  64  94 CALM      30.06S
RED OAK *      CLEAR     70  64  83 S3        30.04S
SHENANDOAH *   CLEAR     70  66  88 SE7       30.04S
$$

IAZ047>049-059>061-072>074-084-100500-
   CENTRAL IOWA

CITY           SKY/WX    TMP DP  RH WIND       PRES   REMARKS
ANKENY *       PTCLDY    66  63  88 S3        30.04R
CHARITON *     CLEAR     66  61  82 SE5       30.06R
GRINNELL*      CLEAR     66  59  77 S5        30.06R
KNOXVILLE *    CLEAR     66  59  77 S7        30.04R
PELLA *        CLEAR     66  61  82 S5        30.06R
PERRY *          N/A     64  63  94 S5        30.04S
$$

IAZ004>006-015-016-023>025-035-036-100500-
   NORTH CENTRAL IOWA

CITY           SKY/WX    TMP DP  RH WIND       PRES   REMARKS
ALGONA *       MOCLDY    66  63  88 CALM      30.03R
CLARION *      CLEAR     61  59  94 S6        30.03R
FOREST CITY *  PTCLDY    64  63  94 CALM      30.03R
IOWA FALLS *     N/A     64  61  88 S6        30.04S
$$

IAZ007>011-017>019-026>030-037>042-050>054-066-100500-
   NORTHEAST IOWA

CITY           SKY/WX    TMP DP  RH WIND       PRES   REMARKS
CHARLES CITY * PTCLDY    64  59  82 E6        30.04R
DECORAH *        N/A    N/A N/A N/A MISG        N/A
MONTICELLO *   CLEAR     63  59  88 CALM      30.05R
OELWEIN *      PTCLDY    63  63 100 SE7       30.05S
$$

IAZ064-065-067-068-078-100500-
   EAST CENTRAL IOWA

CITY           SKY/WX    TMP DP  RH WIND       PRES   REMARKS
MT. PLEASANT * CLEAR     64  59  82 CALM      30.07R
MUSCATINE *    CLEAR     64  61  88 CALM      30.05S
$$

IAZ062-063-075>077-085>089-095>099-100500-
   SOUTHEAST IOWA

CITY           SKY/WX    TMP DP  RH WIND       PRES   REMARKS
FAIRFIELD *    CLEAR     63  59  88 CALM      30.06S
FORT MADISON * CLEAR     63  61  94 CALM      30.07R
KEOKUK *       CLEAR     64  63  94 CALM      30.06R
OSKALOOSA *      N/A     66  61  82 S6        30.06R
CENTERVILLE *  CLEAR     63  63 100 S3        30.08R
WASHINGTON *   CLEAR     64  63  94 SW3       30.06R
$$

ABBREVIATIONS USED IN REMARKS
   TC - TEMPERATURES IN CELSIUS
  WCI - WIND CHILL INDEX
   HX - HEAT INDEX
  VSB - VISIBILITY
$$



USA.gov is the U.S. government's official web portal to all federal, state and local government web resources and services.